Weather History for KBPT - January, 2015

Change the Weather History Date:

Friday, January 9, 2015

  Actual Average Record
Temperature  
Mean Temperature 38 °F 52 °F  
Max Temperature 39 °F 62 °F 81 °F (1914)
Min Temperature 37 °F 43 °F 18 °F (2010)
Degree Days  
Heating Degree Days 27 13  
Month to date heating degree days 163 117  
Since 1 July heating degree days 648 667  
Cooling Degree Days 0 0  
Month to date cooling degree days 0 0  
Year to date cooling degree days 0 0  
Moisture  
Dew Point 34 °F    
Average Humidity 81    
Maximum Humidity 92    
Minimum Humidity 70    
Precipitation  
Precipitation 0.17 in 0.18 in 4.30 in (1984)
Month to date precipitation 1.29 1.62  
Year to date precipitation 1.29 1.62  
Snow  
Snow 0.00 in 0.00 in T in (1962)
Month to date snowfall 0.0 0.0  
Since 1 July snowfall 0.0 T  
Snow Depth 0.00 in    
Sea Level Pressure  
Sea Level Pressure 30.44 in    
Wind  
Wind Speed 10 mph (NNE)    
Max Wind Speed 18 mph    
Max Gust Speed 22 mph    
Visibility 8 miles    
Events Rain    
T = Trace of Precipitation, MM = Missing Value Source: NWS Daily Summary

Daily Weather History Graph

Daily Weather History Graph

Search for Another Location

Airport or City:

Trip Planner

Search our weather history database for the weather conditions in past years. The results will help you decide how hot, cold, wet, or windy it might be!

Date:

Astronomy

Jan. 09, 2015 Rise Set
Actual Time 7:12 AM CST 5:33 PM CST
Civil Twilight 6:46 AM CST 5:59 PM CST
Nautical Twilight 6:17 AM CST 6:29 PM CST
Astronomical Twilight 5:48 AM CST 6:58 PM CST
Moon 9:47 PM CST (1/9) 9:48 AM CST (1/9)
Length of Visible Light 11h 12m
Length of Day
10h 20m
Waning Gibbous, 82% of the Moon is Illuminated
Jan 9
Waning Gibbous
Jan 13
Last Quarter
Jan 20
New
Jan 26
First Quarter
Feb 3
Full

Hourly Weather History & Observations

Time (CST) Temp. Windchill Dew Point Humidity Pressure Visibility Wind Dir Wind Speed Gust Speed Precip Events Conditions
12:53 AM 37.9 °F 32.7 °F 30.9 °F 76% 30.37 in 10.0 mi NNE 6.9 mph - 0.00 in   Overcast
1:53 AM 37.9 °F 32.7 °F 30.9 °F 76% 30.38 in 10.0 mi NNE 6.9 mph - N/A   Overcast
2:53 AM 37.9 °F 32.7 °F 30.9 °F 76% 30.37 in 10.0 mi NNE 6.9 mph - N/A   Overcast
3:53 AM 37.9 °F 32.1 °F 30.9 °F 76% 30.37 in 10.0 mi North 8.1 mph - N/A   Overcast
4:53 AM 39.0 °F 34.0 °F 33.1 °F 79% 30.37 in 10.0 mi NNE 6.9 mph - N/A   Overcast
5:32 AM 39.0 °F 34.0 °F 33.1 °F 79% 30.38 in 10.0 mi North 6.9 mph - 0.00 in Rain Light Rain
5:53 AM 37.9 °F 32.1 °F 35.1 °F 89% 30.39 in 8.0 mi NNE 8.1 mph - 0.00 in Rain Light Rain
6:53 AM 37.9 °F 32.1 °F 35.1 °F 89% 30.41 in 4.0 mi NNE 8.1 mph - 0.00 in Rain Light Rain
7:36 AM 37.9 °F 31.5 °F 36.0 °F 93% 30.43 in 2.5 mi NNE 9.2 mph - 0.01 in Rain Light Rain
7:38 AM 37.9 °F 30.5 °F 36.0 °F 93% 30.43 in 3.0 mi NNE 11.5 mph - 0.01 in Rain Light Rain
7:53 AM 37.0 °F 31.0 °F 35.1 °F 93% 30.44 in 4.0 mi North 8.1 mph - 0.01 in Rain Light Rain
8:17 AM 37.0 °F 28.9 °F 35.1 °F 93% 30.45 in 2.5 mi North 12.7 mph - 0.01 in Rain Light Rain
8:25 AM 37.0 °F 30.4 °F 35.1 °F 93% 30.45 in 4.0 mi NNE 9.2 mph - 0.01 in Rain Light Rain
8:53 AM 37.0 °F 29.8 °F 35.1 °F 93% 30.47 in 3.0 mi North 10.4 mph - 0.02 in Rain Rain
9:53 AM 37.9 °F 30.0 °F 34.0 °F 86% 30.49 in 3.0 mi NNE 12.7 mph 20.7 mph 0.04 in Rain Light Rain
10:53 AM 37.4 °F 28.5 °F 33.8 °F 87% 30.47 in 10.0 mi NE 15.0 mph - N/A   Overcast
11:49 AM 37.4 °F 28.5 °F 32.0 °F 81% 30.45 in 10.0 mi NNE 15.0 mph - 0.00 in Rain Light Rain
11:53 AM 37.9 °F 29.6 °F 32.0 °F 79% 30.45 in 10.0 mi NNE 13.8 mph - 0.00 in Rain Light Rain
12:46 PM 37.9 °F 30.5 °F 33.1 °F 83% 30.43 in 10.0 mi NNE 11.5 mph - 0.00 in   Overcast
12:53 PM 37.9 °F 30.0 °F 33.1 °F 83% 30.43 in 10.0 mi NNE 12.7 mph - 0.00 in   Overcast
1:53 PM 37.9 °F 30.5 °F 33.1 °F 83% 30.42 in 9.0 mi NE 11.5 mph - 0.00 in Rain Light Rain
2:53 PM 39.0 °F 32.3 °F 34.0 °F 82% 30.42 in 10.0 mi NNE 10.4 mph - 0.00 in   Overcast
3:53 PM 37.9 °F 30.9 °F 34.0 °F 86% 30.44 in 3.0 mi NNE 10.4 mph - 0.01 in Rain Rain
4:53 PM 37.9 °F 31.5 °F 35.1 °F 89% 30.45 in 3.0 mi NNE 9.2 mph - 0.07 in Rain Rain
5:53 PM 37.0 °F 28.9 °F 34.0 °F 89% 30.47 in 10.0 mi NNE 12.7 mph - 0.02 in   Overcast
5:57 PM 37.0 °F 29.3 °F 34.0 °F 89% 30.46 in 10.0 mi North 11.5 mph - N/A   Overcast
6:53 PM 37.0 °F 28.9 °F 34.0 °F 89% 30.48 in 10.0 mi North 12.7 mph - N/A   Overcast
7:53 PM 37.0 °F 29.8 °F 33.1 °F 86% 30.50 in 10.0 mi NNE 10.4 mph - 0.00 in   Overcast
8:53 PM 37.9 °F 32.1 °F 33.1 °F 83% 30.51 in 10.0 mi NNE 8.1 mph - N/A   Overcast
9:53 PM 37.9 °F 32.1 °F 34.0 °F 86% 30.50 in 10.0 mi NNE 8.1 mph - N/A   Overcast
10:53 PM 37.9 °F 32.7 °F 34.0 °F 86% 30.49 in 10.0 mi NNE 6.9 mph - N/A   Overcast
11:53 PM 37.9 °F 31.5 °F 33.1 °F 83% 30.48 in 10.0 mi NNE 9.2 mph - N/A   Overcast